Tiempo cada hora Abadzekhskaya

Hoy, 24 Junio, Jueves

Tiempo Temperatura Precipitaciones Viento Presión Humedad
00:00 +22°C° 0.1 mm 1 mps 712 mmHg 90%
01:00 +22°C° 0.4 mm 1 mps 712 mmHg 91%
02:00 +21°C° 0.4 mm 1 mps 712 mmHg 93%
03:00 +21°C° 0 mm 1 mps 712 mmHg 94%
04:00 +21°C° 0 mm 1 mps 712 mmHg 93%
05:00 +21°C° 0 mm 1 mps 712 mmHg 92%
06:00 +21°C° 0 mm 1 mps 712 mmHg 91%
07:00 +23°C° 0 mm 1 mps 712 mmHg 84%
08:00 +24°C° 0 mm 1 mps 713 mmHg 77%
09:00 +26°C° 0 mm 2 mps 713 mmHg 70%
10:00 +27°C° 0.1 mm 2 mps 713 mmHg 67%
11:00 +27°C° 0.1 mm 2 mps 713 mmHg 63%
12:00 +28°C° 0.1 mm 3 mps 713 mmHg 60%
13:00 +28°C° 0.3 mm 2 mps 713 mmHg 64%
14:00 +27°C° 0.3 mm 2 mps 713 mmHg 69%
15:00 +27°C° 0.3 mm 2 mps 713 mmHg 74%
16:00 +27°C° 0.2 mm 1 mps 713 mmHg 75%
17:00 +26°C° 0.2 mm 1 mps 713 mmHg 76%
18:00 +26°C° 0.2 mm 1 mps 713 mmHg 77%
19:00 +25°C° 0 mm 1 mps 712 mmHg 81%
20:00 +24°C° 0 mm 1 mps 712 mmHg 85%
21:00 +22°C° 0 mm 1 mps 712 mmHg 89%
22:00 +22°C° 0 mm 1 mps 712 mmHg 91%
23:00 +21°C° 0 mm 1 mps 712 mmHg 92%

Mañana, 25 Junio, Viernes

Tiempo Temperatura Precipitaciones Viento Presión Humedad
00:00 +21°C° 0 mm 1 mps 712 mmHg 93%
01:00 +20°C° 0 mm 1 mps 711 mmHg 94%
02:00 +20°C° 0 mm 1 mps 711 mmHg 95%
03:00 +20°C° 0 mm 1 mps 711 mmHg 96%
04:00 +20°C° 0 mm 1 mps 711 mmHg 95%
05:00 +21°C° 0 mm 1 mps 711 mmHg 93%
06:00 +21°C° 0 mm 1 mps 711 mmHg 92%
07:00 +22°C° 0.2 mm 1 mps 712 mmHg 88%
08:00 +23°C° 0.2 mm 1 mps 712 mmHg 83%
09:00 +25°C° 0.2 mm 1 mps 712 mmHg 79%
10:00 +25°C° 0.2 mm 1 mps 712 mmHg 77%
11:00 +26°C° 0.2 mm 1 mps 712 mmHg 76%
12:00 +27°C° 0.2 mm 1 mps 712 mmHg 74%
13:00 +27°C° 0.7 mm 1 mps 712 mmHg 76%
14:00 +26°C° 0.7 mm 1 mps 712 mmHg 79%
15:00 +26°C° 0.7 mm 1 mps 711 mmHg 81%
16:00 +26°C° 1.3 mm 1 mps 711 mmHg 83%
17:00 +24°C° 1.3 mm 0 mps 711 mmHg 85%
18:00 +23°C° 1.3 mm 0 mps 711 mmHg 87%
19:00 +24°C° 0.2 mm 1 mps 711 mmHg 89%
20:00 +23°C° 0.2 mm 1 mps 711 mmHg 91%
21:00 +22°C° 0.2 mm 1 mps 711 mmHg 92%
22:00 +22°C° 0.2 mm 1 mps 710 mmHg 93%
23:00 +21°C° 0.2 mm 1 mps 710 mmHg 94%

Pasado mañana, 26 Junio, Sábado

Tiempo Temperatura Precipitaciones Viento Presión Humedad
00:00 +21°C° 0.2 mm 1 mps 710 mmHg 95%
01:00 +20°C° 0.1 mm 1 mps 710 mmHg 96%
02:00 +20°C° 0.1 mm 1 mps 710 mmHg 96%
03:00 +20°C° 0.1 mm 1 mps 710 mmHg 97%
04:00 +20°C° 1.3 mm 1 mps 710 mmHg 97%
05:00 +20°C° 1.3 mm 1 mps 710 mmHg 97%
06:00 +20°C° 1.3 mm 1 mps 710 mmHg 97%
07:00 +21°C° 1.9 mm 1 mps 710 mmHg 97%
08:00 +21°C° 1.9 mm 1 mps 711 mmHg 97%
09:00 +21°C° 1.9 mm 1 mps 711 mmHg 97%
10:00 +23°C° 0.1 mm 1 mps 711 mmHg 90%
11:00 +24°C° 0.1 mm 1 mps 711 mmHg 83%
12:00 +25°C° 0.1 mm 1 mps 711 mmHg 77%
13:00 +27°C° 0.1 mm 1 mps 710 mmHg 70%
14:00 +28°C° 0.1 mm 2 mps 710 mmHg 63%
15:00 +29°C° 0.1 mm 2 mps 710 mmHg 56%
16:00 +28°C° 0.1 mm 2 mps 710 mmHg 63%
17:00 +27°C° 0.1 mm 2 mps 710 mmHg 69%
18:00 +26°C° 0.1 mm 2 mps 710 mmHg 76%
19:00 +25°C° 0.1 mm 2 mps 710 mmHg 82%
20:00 +23°C° 0.1 mm 1 mps 710 mmHg 88%
21:00 +22°C° 0.1 mm 1 mps 710 mmHg 94%
22:00 +21°C° 0.4 mm 1 mps 710 mmHg 94%
23:00 +21°C° 0.4 mm 1 mps 710 mmHg 94%

27 Junio, Domingo

Tiempo Temperatura Precipitaciones Viento Presión Humedad
00:00 +20°C° 0.4 mm 2 mps 709 mmHg 94%
01:00 +20°C° 0.3 mm 2 mps 710 mmHg 94%
02:00 +20°C° 0.3 mm 1 mps 710 mmHg 94%
03:00 +20°C° 0.3 mm 1 mps 710 mmHg 94%
04:00 +20°C° 0.3 mm 1 mps 710 mmHg 95%
05:00 +20°C° 0.3 mm 1 mps 710 mmHg 95%
06:00 +20°C° 0.3 mm 1 mps 711 mmHg 95%
07:00 +21°C° 0 mm 1 mps 711 mmHg 90%
08:00 +22°C° 0 mm 1 mps 711 mmHg 84%
09:00 +22°C° 0 mm 0 mps 711 mmHg 78%
10:00 +25°C° 0 mm 1 mps 711 mmHg 73%
11:00 +26°C° 0 mm 1 mps 711 mmHg 68%
12:00 +27°C° 0 mm 2 mps 711 mmHg 63%
13:00 +28°C° 0.2 mm 2 mps 711 mmHg 62%
14:00 +28°C° 0.2 mm 2 mps 711 mmHg 62%
15:00 +28°C° 0.2 mm 2 mps 711 mmHg 61%
16:00 +27°C° 0.9 mm 2 mps 711 mmHg 69%
17:00 +26°C° 0.9 mm 2 mps 711 mmHg 77%
18:00 +25°C° 0.9 mm 1 mps 711 mmHg 85%
19:00 +24°C° 0.2 mm 1 mps 711 mmHg 87%
20:00 +23°C° 0.2 mm 1 mps 711 mmHg 90%
21:00 +21°C° 0.2 mm 1 mps 711 mmHg 93%
22:00 +21°C° 0 mm 1 mps 711 mmHg 94%
23:00 +20°C° 0 mm 1 mps 711 mmHg 95%

28 Junio, Lunes

Tiempo Temperatura Precipitaciones Viento Presión Humedad
00:00 +20°C° 0 mm 1 mps 711 mmHg 95%
01:00 +20°C° 0.1 mm 1 mps 711 mmHg 96%
02:00 +19°C° 0.1 mm 1 mps 711 mmHg 96%
03:00 +19°C° 0.1 mm 1 mps 712 mmHg 96%
04:00 +19°C° 0.2 mm 1 mps 712 mmHg 96%
05:00 +19°C° 0.2 mm 1 mps 712 mmHg 95%
06:00 +20°C° 0.2 mm 1 mps 712 mmHg 95%
07:00 +22°C° 0.2 mm 1 mps 712 mmHg 87%
08:00 +24°C° 0.2 mm 1 mps 712 mmHg 80%
09:00 +25°C° 0.2 mm 1 mps 712 mmHg 72%
10:00 +26°C° 0.2 mm 1 mps 712 mmHg 71%
11:00 +27°C° 0.2 mm 1 mps 712 mmHg 69%
12:00 +28°C° 0.2 mm 2 mps 712 mmHg 68%
13:00 +27°C° 1.3 mm 1 mps 712 mmHg 72%
14:00 +27°C° 1.3 mm 1 mps 712 mmHg 76%
15:00 +26°C° 1.3 mm 1 mps 712 mmHg 79%
16:00 +26°C° 0.9 mm 1 mps 712 mmHg 79%
17:00 +26°C° 0.9 mm 1 mps 712 mmHg 80%
18:00 +26°C° 0.9 mm 1 mps 712 mmHg 80%
19:00 +24°C° 0.3 mm 1 mps 712 mmHg 83%
20:00 +23°C° 0.3 mm 1 mps 712 mmHg 87%
21:00 +21°C° 0.3 mm 1 mps 712 mmHg 91%
22:00 +21°C° 0 mm 1 mps 712 mmHg 92%
23:00 +20°C° 0 mm 1 mps 712 mmHg 93%

29 Junio, Martes

Tiempo Temperatura Precipitaciones Viento Presión Humedad
00:00 +20°C° 0 mm 1 mps 711 mmHg 94%
01:00 +19°C° 0 mm 1 mps 711 mmHg 94%
02:00 +19°C° 0 mm 1 mps 711 mmHg 94%
03:00 +18°C° 0 mm 1 mps 711 mmHg 94%
04:00 +19°C° 0 mm 1 mps 712 mmHg 93%
05:00 +19°C° 0 mm 1 mps 712 mmHg 93%
06:00 +19°C° 0 mm 1 mps 712 mmHg 92%
07:00 +22°C° 0 mm 1 mps 712 mmHg 84%
08:00 +24°C° 0 mm 1 mps 712 mmHg 75%
09:00 +26°C° 0 mm 1 mps 712 mmHg 67%
10:00 +26°C° 0.2 mm 1 mps 712 mmHg 65%
11:00 +27°C° 0.2 mm 1 mps 712 mmHg 63%
12:00 +28°C° 0.2 mm 2 mps 712 mmHg 61%
13:00 +27°C° 0.7 mm 2 mps 712 mmHg 67%
14:00 +27°C° 0.7 mm 2 mps 712 mmHg 72%
15:00 +26°C° 0.7 mm 2 mps 712 mmHg 77%
16:00 +25°C° 1.2 mm 1 mps 712 mmHg 80%
17:00 +25°C° 1.2 mm 1 mps 712 mmHg 84%
18:00 +24°C° 1.2 mm 1 mps 712 mmHg 87%
19:00 +23°C° 0.6 mm 1 mps 712 mmHg 89%
20:00 +22°C° 0.6 mm 1 mps 712 mmHg 91%
21:00 +21°C° 0.6 mm 1 mps 712 mmHg 93%
22:00 +20°C° 0.1 mm 1 mps 712 mmHg 93%
23:00 +18°C° 0.1 mm 0 mps 712 mmHg 94%
Mostrar más

Necesitamos Su Consentimiento

Meteoprog y nuestros Proveedores de Servicios pueden almacenar y acceder a sus datos personales como cookies, identificadores de dispositivo u otras tecnologías similares de su dispositivo y procesar dichos datos para personalizar contenido y anuncios, además de ofrecer funciones de redes sociales y analizar el tráfico.

  • Almacenar y/o acceder a información en su dispositivo

    Se puede almacenar o acceder a cookies, identificadores de dispositivo u otra información de su dispositivo para los fines anteriormente indicados.

  • Anuncios y contenido personalizados, medición de anuncios y contenido, percepciones del público, y desarrollo de productos

    Los anuncios y el contenido pueden personalizarse en base a su perfil. Se pueden añadir más datos para personalizar mejor los anuncios y contenidos. Se puede medir el rendimiento de los anuncios y contenidos. Se puede obtener la percepción sobre el público que ha visto los anuncios y contenidos. Dichos datos pueden usarse para desarrollar o mejorar la experiencia del usuario, sistemas y software.

Al hacer clic en ‘Estoy De Acuerdo’ usted permitirá el uso de las cookies, identificadores de dispositivo, balizas web u otras tecnologías similares indicadas. Su configuración puede cambiarse desde el navegador de su dispositivo.

Para ciertos fines, los intereses legítimos pueden ser considerados por encima del consentimiento. Puede leer más sobre ello en nuestra Política de Privacidad y Cookies.